NAYIF-1 (EO-88) (42017 NORAD) Tracking and Keplerian Element Data

This shows tracking and keplerian element data for the satellite.

Feedback or suggestion? Click here.




ElementValue
Catalog42017
NameNAYIF-1 (EO-88)
Epoch Orbit15236
Epoch Day316.87402107
Epoch Year2019
RAAN22.3514
Inclination97.388
Eccentricity0.000671
Argument of Perigee25.1188
Mean Anonmoly335.0376
Mean Motion15.25885812
Decay Rate1.624E-05
L11 42017U 17008BX 19316.87402107 .00001624 00000-0 66195-4 0 9993
L22 42017 97.3880 22.3514 0006710 25.1188 335.0376 15.25885812152366

Live tracking and technical data element details for NAYIF-1 (EO-88) (NORAD 42017). NAYIF-1 (EO-88) can be tracked NOW for your location showing map with azimuth and elevation plus other details from your city location.

Track the satellite on the map from your city or location and see movement details for azimuth, elevation, latitude, longitude, range, height, and movement on the map or in text.







IsCatalogInMostPopularTable: catalog: 42017, numindb: 333
Update: records affected: 1



GetName: 42017 NAYIF-1 (EO-88)

Hit Count: updated at: Wed, 13 Nov 2019 17:30:31 GMT